星链-6043 (STARLINK-6043 )

导读

STARLINK-6043是美国太空探索技术公司(SpaceX)推出的星链低轨互联网星座中的一颗卫星,于2023年5月10日发射升空。该卫星运行在近地轨道,近地点约546千米,远地点约548千米,轨道倾角53.054°,属于星链星座组网卫星。 作为星链计划的组成部分,它旨在为全球偏远、网络基础设施薄弱的地区提供低延迟、高速宽带互联网服务,目前仍在轨正常运行,助力SpaceX实现全球卫星互联网覆盖的目标。

基本信息
目录编号:
56464
目录名称:
STARLINK-6043
国际标识:
2023-064S
轨道中心:
EARTH
卫星名称:
星链-6043
卫星全名:
星链-6043 (STARLINK-6043 )
卫星状态:
在轨 (已飞行1221 天)
发射日期:
2023-05-10 UTC
国别 :
美国 (US)
星等 :
--
该卫星已列入 空间交会检测服务 Space Conjunction Data Service (SCDS) ,当前飞行风险评估等级: 无高风险
轨道信息
数据来源 国际轨道数据 AOE轨道数据
星历时间 2026-09-11T23:40:50+0800
1天前
查看轨道信息
2026-09-11T08:00:00+0800
1天前
查看轨道信息
半长轴 6950.176km 6950.181km
偏心率 0.0003086 0.0002966
轨道倾角 70.001° 70.000°
近地点辐角 268.513° 275.082°
升交点赤经 35.493° 37.138°
平近点角 91.568° 161.818°
近地点 569.894km 569.982km
远地点 574.184km 574.106km
周期 96.107分钟 96.107分钟
每日圈数 14.983356 14.98334
详细信息
固有亮度:
5
最大亮度:
2.5
卫星平台:
Starlink v1.5
覆盖范围:
全球
运营商:
太空探索技术公司
运营商所在国:
美国
制造商(研发单位):
太空探索技术公司
制造商所在国:
美国
使用方式:
暂无
卫星简介
星链(Starlink)计划是由太空探索技术公司(SpaceX)提出的一个巨型低轨卫星互联网星座项目,计划在2019年至2024年间在太空搭建由约1.2万颗卫星组成的“星链”网络,其中1584颗将部署在地球上空550千米处的近地轨道,并从2020年开始工作。该卫星仍在工作。
2D轨道图
3D轨道图
轨道高度分析图
轨道倾角分析图
轨道综合分析图
查看轨道综合分析图
交会数据列表
事件ID 空间交会对象 最接近时刻(TCA) 交会距离 交会风险概率(CRP) 交会风险指数(CRI) 操作
CDM_260906-111604-916605-646424
2026-09-06T
11:16:15+0000
2.565 km
极远距离
1.553589E-6 低风险 0.39
与全量物体交会距离演化趋势
与全量物体交会风险概率演化趋势